TimePDT,TemperatureF,Dew PointF,Humidity,Sea Level PressureIn,VisibilityMPH,Wind Direction,Wind SpeedMPH,Gust SpeedMPH,PrecipitationIn,Events,Conditions,WindDirDegrees,DateUTC
12:26 AM,39.0,39.0,100,29.86,0.2,South,11.5,20.7,0.01,Fog-Rain,Light Rain,190,2014-03-29 07:26:00
12:56 AM,39.0,39.0,100,29.88,0.2,South,10.4,20.7,0.03,Fog-Rain,Light Rain,180,2014-03-29 07:56:00
1:10 AM,37.9,37.9,100,29.87,0.2,South,12.7,20.7,0.01,Fog-Rain,Light Rain,180,2014-03-29 08:10:00
1:17 AM,37.9,37.9,100,29.87,0.2,SSW,13.8,21.9,0.02,Fog-Rain,Light Rain,200,2014-03-29 08:17:00
1:32 AM,37.9,37.9,100,29.87,0.2,South,13.8,21.9,0.03,Fog-Rain,Light Rain,180,2014-03-29 08:32:00
1:56 AM,37.0,37.0,100,29.89,0.2,SSW,9.2,-,0.03,Fog,Fog,210,2014-03-29 08:56:00
2:22 AM,37.0,37.0,100,29.88,0.2,South,10.4,-,0.01,Fog,Fog,180,2014-03-29 09:22:00
2:56 AM,37.0,37.0,100,29.89,0.2,South,8.1,-,0.01,Fog,Fog,190,2014-03-29 09:56:00
3:56 AM,36.0,36.0,100,29.89,0.2,South,12.7,19.6,N/A,Fog,Fog,190,2014-03-29 10:56:00
4:56 AM,35.1,35.1,100,29.89,0.2,South,12.7,-,N/A,Fog,Fog,180,2014-03-29 11:56:00
5:56 AM,35.1,35.1,100,29.90,0.2,SSW,10.4,20.7,N/A,Fog,Fog,200,2014-03-29 12:56:00
6:56 AM,34.0,34.0,100,29.90,0.2,South,13.8,19.6,N/A,Fog,Fog,180,2014-03-29 13:56:00
7:56 AM,35.1,35.1,100,29.91,0.2,South,12.7,23.0,N/A,Fog,Fog,180,2014-03-29 14:56:00
8:56 AM,35.1,35.1,100,29.91,0.2,South,16.1,21.9,N/A,Fog,Fog,180,2014-03-29 15:56:00
9:56 AM,36.0,36.0,100,29.91,0.2,South,16.1,28.8,N/A,Fog,Fog,180,2014-03-29 16:56:00
10:45 AM,36.0,36.0,100,29.89,0.5,South,16.1,29.9,N/A,Fog,Fog,170,2014-03-29 17:45:00
10:56 AM,36.0,36.0,100,29.92,0.2,South,15.0,26.5,N/A,Fog,Fog,170,2014-03-29 17:56:00
11:10 AM,37.0,37.0,100,29.89,1.2,South,15.0,32.2,N/A,,Overcast,170,2014-03-29 18:10:00
11:12 AM,37.0,36.0,96,29.89,2.0,South,18.4,25.3,N/A,,Overcast,180,2014-03-29 18:12:00
11:16 AM,36.0,36.0,100,29.89,4.0,South,17.3,26.5,N/A,,Overcast,180,2014-03-29 18:16:00
11:42 AM,37.0,36.0,96,29.90,10.0,South,15.0,29.9,0.00,,Overcast,190,2014-03-29 18:42:00
11:56 AM,37.0,36.0,96,29.94,10.0,SSW,12.7,26.5,0.00,,Overcast,210,2014-03-29 18:56:00
12:04 PM,37.0,36.0,96,29.90,8.0,SSW,15.0,26.5,0.00,Rain,Light Rain,200,2014-03-29 19:04:00
12:13 PM,37.0,36.0,96,29.91,7.0,SSW,16.1,28.8,0.00,,Overcast,210,2014-03-29 19:13:00
12:21 PM,37.0,36.0,96,29.91,4.0,SSW,13.8,29.9,0.00,,Overcast,200,2014-03-29 19:21:00
12:29 PM,37.9,37.9,100,29.91,2.5,SSW,16.1,27.6,0.01,,Overcast,200,2014-03-29 19:29:00
12:37 PM,37.9,37.0,97,29.91,10.0,South,16.1,27.6,0.01,,Overcast,190,2014-03-29 19:37:00
12:56 PM,37.0,37.0,100,29.95,7.0,SSW,11.5,25.3,0.01,,Overcast,200,2014-03-29 19:56:00
1:34 PM,37.0,37.0,100,29.92,2.5,SSW,13.8,21.9,0.00,,Overcast,210,2014-03-29 20:34:00
1:48 PM,37.0,37.0,100,29.92,10.0,SSW,9.2,21.9,0.00,,Overcast,210,2014-03-29 20:48:00
1:56 PM,37.0,37.0,100,29.96,5.0,SSW,11.5,19.6,0.00,Rain,Light Rain,210,2014-03-29 20:56:00
1:58 PM,37.0,37.0,100,29.92,1.0,SSW,11.5,19.6,0.01,Rain,Light Rain,210,2014-03-29 20:58:00
2:01 PM,37.0,37.0,100,29.92,0.2,South,11.5,20.7,0.01,Fog-Rain,Light Rain,190,2014-03-29 21:01:00
2:38 PM,37.0,37.0,100,29.91,0.8,Variable,6.9,-,0.05,Rain,Light Rain,0,2014-03-29 21:38:00
2:41 PM,37.0,37.0,100,29.91,1.5,WSW,8.1,-,0.05,Rain,Light Rain,240,2014-03-29 21:41:00
2:45 PM,37.0,37.0,100,29.91,3.0,SW,8.1,-,0.05,,Overcast,220,2014-03-29 21:45:00
2:54 PM,37.4,37.4,100,29.91,2.5,Variable,3.5,-,0.05,,Overcast,0,2014-03-29 21:54:00
2:56 PM,37.0,37.0,100,29.95,1.8,West,4.6,-,0.05,,Overcast,260,2014-03-29 21:56:00
3:04 PM,37.9,37.9,100,29.91,1.0,Variable,5.8,-,0.00,Rain,Light Rain,0,2014-03-29 22:04:00
3:15 PM,37.9,37.9,100,29.90,0.5,WSW,5.8,-,0.00,Fog,Fog,250,2014-03-29 22:15:00
3:36 PM,39.0,37.9,96,29.90,0.5,SW,5.8,-,0.00,Fog,Fog,230,2014-03-29 22:36:00
3:56 PM,39.0,39.0,100,29.93,0.2,SW,10.4,-,0.00,Fog,Fog,230,2014-03-29 22:56:00
3:58 PM,39.0,37.9,96,29.90,1.2,SW,9.2,-,N/A,,Overcast,220,2014-03-29 22:58:00
4:00 PM,39.0,37.9,96,29.90,6.0,SW,10.4,17.3,N/A,,Overcast,230,2014-03-29 23:00:00
4:06 PM,37.9,37.9,100,29.90,1.5,Variable,4.6,17.3,N/A,,Overcast,0,2014-03-29 23:06:00
4:08 PM,39.0,37.9,96,29.90,0.8,Variable,6.9,-,0.00,Rain,Light Rain,0,2014-03-29 23:08:00
4:20 PM,39.0,37.9,96,29.89,0.2,Variable,6.9,-,0.00,Fog-Rain,Light Rain,0,2014-03-29 23:20:00
4:30 PM,37.9,37.0,97,29.89,1.2,SW,11.5,24.2,0.00,,Overcast,220,2014-03-29 23:30:00
4:32 PM,37.9,37.0,97,29.89,2.5,SW,11.5,24.2,0.00,,Overcast,220,2014-03-29 23:32:00
4:36 PM,37.9,37.0,97,29.89,5.0,SW,10.4,18.4,0.00,,Overcast,220,2014-03-29 23:36:00
4:42 PM,37.9,37.9,100,29.89,1.2,SW,9.2,-,0.00,,Overcast,220,2014-03-29 23:42:00
4:49 PM,37.0,37.0,100,29.89,0.2,Variable,5.8,18.4,0.00,Fog-Rain,Light Rain,0,2014-03-29 23:49:00
4:56 PM,37.0,37.0,100,29.94,0.2,WSW,5.8,-,0.00,Fog-Rain,Light Rain,250,2014-03-29 23:56:00
5:07 PM,37.0,37.0,100,29.89,0.2,Variable,6.9,-,0.02,Fog-Rain,Light Rain,0,2014-03-30 00:07:00
5:56 PM,35.1,35.1,100,29.95,0.2,Variable,5.8,-,0.05,Fog,Fog,0,2014-03-30 00:56:00
6:05 PM,35.1,35.1,100,29.89,0.5,Variable,5.8,-,0.00,Fog,Fog,0,2014-03-30 01:05:00
6:11 PM,34.0,34.0,100,29.89,1.5,WSW,8.1,-,0.00,,Overcast,240,2014-03-30 01:11:00
6:18 PM,34.0,34.0,100,29.89,2.0,West,8.1,-,0.00,,Overcast,260,2014-03-30 01:18:00
6:22 PM,35.1,35.1,100,29.90,1.2,Variable,4.6,-,0.00,,Overcast,0,2014-03-30 01:22:00
6:31 PM,35.1,35.1,100,29.90,1.0,WSW,8.1,-,0.00,,Overcast,240,2014-03-30 01:31:00
6:34 PM,36.0,36.0,100,29.90,2.0,Variable,5.8,-,0.00,,Overcast,0,2014-03-30 01:34:00
6:41 PM,36.0,36.0,100,29.90,2.5,Variable,4.6,-,0.00,,Overcast,0,2014-03-30 01:41:00
6:49 PM,36.0,36.0,100,29.90,1.5,Variable,4.6,-,0.00,,Overcast,0,2014-03-30 01:49:00
6:56 PM,35.1,35.1,100,29.96,1.8,Variable,5.8,-,0.00,,Overcast,0,2014-03-30 01:56:00
7:01 PM,35.1,35.1,100,29.91,0.8,Variable,3.5,-,N/A,,Overcast,0,2014-03-30 02:01:00
7:26 PM,34.0,34.0,100,29.90,1.2,Variable,5.8,-,N/A,,Overcast,0,2014-03-30 02:26:00
7:32 PM,34.0,34.0,100,29.90,1.5,Variable,6.9,-,N/A,,Overcast,0,2014-03-30 02:32:00
7:40 PM,34.0,33.1,96,29.90,1.8,Variable,5.8,-,N/A,,Overcast,0,2014-03-30 02:40:00
7:42 PM,34.0,33.1,96,29.90,1.8,Variable,5.8,-,N/A,,Overcast,0,2014-03-30 02:42:00
7:48 PM,34.0,33.1,96,29.90,3.0,WSW,8.1,-,N/A,,Overcast,240,2014-03-30 02:48:00
7:56 PM,34.0,33.1,96,29.96,5.0,WSW,9.2,-,N/A,,Overcast,240,2014-03-30 02:56:00
8:01 PM,34.0,33.1,96,29.91,2.5,WSW,6.9,-,N/A,,Overcast,240,2014-03-30 03:01:00
8:04 PM,34.0,34.0,100,29.91,1.2,SW,9.2,-,N/A,,Overcast,220,2014-03-30 03:04:00
8:12 PM,34.0,34.0,100,29.91,0.5,WSW,9.2,-,N/A,Fog,Fog,250,2014-03-30 03:12:00
8:18 PM,34.0,33.1,96,29.91,1.5,WSW,8.1,16.1,N/A,,Overcast,250,2014-03-30 03:18:00
8:21 PM,33.1,33.1,100,29.91,4.0,WSW,10.4,16.1,N/A,,Overcast,240,2014-03-30 03:21:00
8:32 PM,33.1,33.1,100,29.91,2.5,West,5.8,-,N/A,,Overcast,260,2014-03-30 03:32:00
8:46 PM,34.0,34.0,100,29.92,1.2,SW,5.8,-,N/A,,Overcast,220,2014-03-30 03:46:00
8:56 PM,34.0,34.0,100,29.97,0.5,SW,5.8,-,N/A,Fog,Fog,230,2014-03-30 03:56:00
9:06 PM,34.0,33.1,96,29.92,0.8,SW,9.2,-,N/A,,Overcast,230,2014-03-30 04:06:00
9:25 PM,34.0,33.1,96,29.93,1.0,SW,9.2,-,N/A,,Overcast,220,2014-03-30 04:25:00
9:33 PM,34.0,33.1,96,29.93,0.5,SW,8.1,-,N/A,Fog,Fog,220,2014-03-30 04:33:00
9:51 PM,33.8,33.8,100,29.93,0.2,SW,8.1,-,N/A,Fog,Fog,220,2014-03-30 04:51:00
9:56 PM,34.0,34.0,100,29.98,0.2,SSW,6.9,-,N/A,Fog,Fog,200,2014-03-30 04:56:00
10:56 PM,34.0,34.0,100,29.99,0.2,Calm,Calm,-,0.00,Fog,Fog,0,2014-03-30 05:56:00
11:56 PM,33.1,33.1,100,29.99,0.5,Variable,5.8,-,0.02,Fog,Fog,0,2014-03-30 06:56:00